FW4468 Weather Reports


Display with metric or nautical units.
time (UTC)temp
F
wind
direction
speed
MPH
gust
MPH
rain 1hr
in
rain 24hr
in
rain mn
in
humidity
%
barometer
mb
20260503233035 80 125 1.0 6.0 0.00 0.00 0.00 25 1009.8
20260503231523 80 333 3.0 6.0 0.00 0.00 0.00 24 1010.1
20260503230022 80 78 1.0 8.0 0.00 0.00 0.00 26 1010.3
20260503224521 81 28 2.0 11.0 0.00 0.00 0.00 23 1010.5
20260503223018 80 84 2.0 9.0 0.00 0.00 0.00 24 1010.7
20260503221526 81 30 3.0 9.0 0.00 0.00 0.00 25 1010.8
20260503220014 81 107 2.0 7.0 0.00 0.00 0.00 27 1011.0
20260503214513 80 246 1.0 10.0 0.00 0.00 0.00 23 1011.0
20260503213009 80 28 2.0 10.0 0.00 0.00 0.00 25 1011.3
20260503211508 80 80 4.0 10.0 0.00 0.00 0.00 24 1011.3
20260503210006 80 84 2.0 10.0 0.00 0.00 0.00 24 1011.4
20260503204504 79 69 2.0 8.0 0.00 0.00 0.00 25 1011.5
20260503203059 78 29 2.0 13.0 0.00 0.00 0.00 27 1011.6
20260503201555 78 84 2.0 10.0 0.00 0.00 0.00 30 1011.9
20260503200056 77 50 2.0 8.0 0.00 0.00 0.00 31 1012.1
20260503194558 77 80 3.0 9.0 0.00 0.00 0.00 32 1012.3
20260503193048 76 229 2.0 8.0 0.00 0.00 0.00 31 1012.5
20260503191547 77 65 3.0 10.0 0.00 0.00 0.00 31 1012.5
20260503190041 76 125 2.0 9.0 0.00 0.00 0.00 36 1012.6
20260503184537 74 103 3.0 9.0 0.00 0.00 0.00 35 1012.7
20260503183035 73 78 3.0 9.0 0.00 0.00 0.00 37 1012.7
20260503181533 73 113 3.0 11.0 0.00 0.00 0.00 36 1012.8
20260503180032 72 65 3.0 8.0 0.00 0.00 0.00 36 1012.8
20260503174528 71 96 3.0 13.0 0.00 0.00 0.00 39 1013.0
20260503173028 71 28 3.0 12.0 0.00 0.00 0.00 41 1013.2
20260503171524 70 123 3.0 11.0 0.00 0.00 0.00 40 1013.3
20260503081520 56 139 0.0 0.0 0.00 0.00 0.00 54 1013.6
20260503071506 60 138 0.0 1.0 0.00 0.00 0.00 47 1013.5
20260503054502 64 138 0.0 2.0 0.00 0.00 0.00 40 1013.4
20260503053002 64 134 0.0 3.0 0.00 0.00 0.00 39 1013.2
20260503051600 65 108 0.0 4.0 0.00 0.00 0.00 36 1013.2
20260503044600 66 148 0.0 3.0 0.00 0.00 0.00 35 1013.1
20260503043104 66 128 0.0 4.0 0.00 0.00 0.00 35 1012.9
20260503041558 66 192 1.0 4.0 0.00 0.00 0.00 36 1012.8
20260503040113 66 121 0.0 3.0 0.00 0.00 0.00 36 1012.6
20260503034558 67 150 1.0 5.0 0.00 0.00 0.00 36 1012.4
20260503033056 67 138 1.0 4.0 0.00 0.00 0.00 35 1012.3
20260503031605 68 127 1.0 4.0 0.00 0.00 0.00 35 1012.2
20260503030054 69 312 1.0 6.0 0.00 0.00 0.00 34 1012.2
20260503024555 69 157 2.0 8.0 0.00 0.00 0.00 34 1012.0
20260503023054 70 132 1.0 3.0 0.00 0.00 0.00 32 1012.0
20260503021553 70 74 2.0 7.0 0.00 0.00 0.00 34 1012.1
20260503020054 71 85 2.0 6.0 0.00 0.00 0.00 33 1012.1
20260503014607 71 234 3.0 10.0 0.00 0.00 0.00 31 1012.2
20260503013050 72 101 2.0 9.0 0.00 0.00 0.00 32 1012.2
20260503011555 72 67 2.0 9.0 0.00 0.00 0.00 31 1012.4
20260503010048 73 90 3.0 12.0 0.00 0.00 0.00 31 1012.3
20260503004548 74 89 4.0 10.0 0.00 0.00 0.00 29 1012.5
20260503003047 75 92 2.0 9.0 0.00 0.00 0.00 31 1012.4
20260503001555 75 268 3.0 10.0 0.00 0.00 0.00 32 1012.5
20260503000043 75 236 1.0 8.0 0.00 0.00 0.00 33 1012.6
20260502234543 75 195 3.0 12.0 0.00 0.00 0.00 32 1012.7